De Queen, AR

9:52 PM CDT on September 20, 2017 (GMT -0500)
Helms Sevier County

Weather History for KDEQ - February, 2013

Change the Weather History Date:

Saturday, February 23, 2013

  Actual Average Record
Temperature  
Mean Temperature 41 °F 47 °F  
Max Temperature 56 °F 61 °F 85 °F (1982)
Min Temperature 25 °F 34 °F 18 °F (1967)
Degree Days  
Heating Degree Days 24 18  
Month to date heating degree days 443 472  
Since 1 July heating degree days 2207 2408  
Cooling Degree Days 0 0  
Month to date cooling degree days 0 0  
Year to date cooling degree days 4 1  
Moisture  
Dew Point 29 °F    
Average Humidity 67    
Maximum Humidity 96    
Minimum Humidity 38    
Precipitation  
Precipitation 0.00 in 0.10 in 1.20 in (1991)
Month to date precipitation 1.40 3.18  
Year to date precipitation 3.40 6.50  
Snow  
Snow 0.00 in - - ()
Month to date snowfall 0.0  
Since 1 July snowfall 4.5  
Snow Depth 0.00 in    
Sea Level Pressure  
Sea Level Pressure 30.01 in    
Wind  
Wind Speed 2 mph (SW)    
Max Wind Speed 13 mph    
Max Gust Speed 19 mph    
Visibility 9 miles    
Events      
T = Trace of Precipitation, MM = Missing Value Source: NWS Daily Summary

Daily Weather History Graph

Daily Weather History Graph

Search for Another Location

Airport or City:

Trip Planner

Search our weather history database for the weather conditions in past years. The results will help you decide how hot, cold, wet, or windy it might be!

Date:

Astronomy

Feb. 23, 2013 Rise Set
Actual Time 6:53 AM CST 6:09 PM CST
Civil Twilight 6:27 AM CST 6:34 PM CST
Nautical Twilight 5:58 AM CST 7:03 PM CST
Astronomical Twilight 5:29 AM CST 7:32 PM CST
Moon 4:22 PM CST (2/23) 5:12 AM CST (2/23)
Length of Visible Light 12h 06m
Length of Day
11h 15m
Waxing Gibbous, 95% of the Moon is Illuminated
Feb 23
Waxing Gibbous
Feb 25
Full
Mar 4
Last Quarter
Mar 11
New
Mar 19
First Quarter

Hourly Weather History & Observations

Time (CST) Temp. Windchill Dew Point Humidity Pressure Visibility Wind Dir Wind Speed Gust Speed Precip Events Conditions
12:53 AM 32.0 °F 27.5 °F 28.0 °F 85% 30.07 in 10.0 mi WSW 4.6 mph - N/A   Clear
1:53 AM 30.0 °F - 27.0 °F 88% 30.06 in 10.0 mi Calm Calm - N/A   Clear
2:53 AM 28.9 °F - 26.1 °F 89% 30.02 in 9.0 mi Calm Calm - N/A   Clear
3:53 AM 28.0 °F - 26.1 °F 92% 30.02 in 8.0 mi Calm Calm - N/A   Clear
4:53 AM 28.0 °F - 25.0 °F 88% 30.02 in 9.0 mi Calm Calm - N/A   Clear
6:53 AM 26.1 °F 21.9 °F 25.0 °F 96% 30.04 in 6.0 mi West 3.5 mph - N/A   Clear
7:53 AM 30.0 °F - 27.0 °F 88% 30.05 in 5.0 mi Calm Calm - N/A   Clear
8:53 AM 36.0 °F - 30.0 °F 79% 30.08 in 7.0 mi Calm Calm - N/A   Clear
9:53 AM 39.9 °F - 28.9 °F 65% 30.07 in 9.0 mi Calm Calm - N/A   Clear
10:53 AM 44.1 °F 42.5 °F 28.0 °F 53% 30.06 in 9.0 mi East 3.5 mph - N/A   Clear
11:53 AM 46.0 °F - 28.9 °F 51% 30.04 in 10.0 mi Calm Calm - N/A   Clear
12:53 PM 48.9 °F - 30.9 °F 50% 30.01 in 10.0 mi Variable 4.6 mph - N/A   Scattered Clouds
1:53 PM 52.0 °F - 30.0 °F 43% 29.99 in 10.0 mi WNW 5.8 mph - N/A   Mostly Cloudy
2:53 PM 53.1 °F - 30.0 °F 41% 29.95 in 10.0 mi Calm Calm - N/A   Mostly Cloudy
3:53 PM 54.0 °F - 28.9 °F 38% 29.93 in 10.0 mi Calm Calm - N/A   Clear
4:53 PM 54.0 °F - 30.9 °F 41% 29.92 in 10.0 mi SSW 4.6 mph - N/A   Clear
5:53 PM 52.0 °F - 32.0 °F 47% 29.94 in 10.0 mi SW 4.6 mph - N/A   Clear
6:53 PM 46.0 °F - 34.0 °F 63% 29.96 in 10.0 mi Calm Calm - N/A   Clear
7:53 PM 39.9 °F - 34.0 °F 79% 29.96 in 6.0 mi Calm Calm - N/A   Haze
9:53 PM 34.0 °F - 32.0 °F 92% 29.99 in 10.0 mi Calm Calm - N/A   Clear
10:53 PM 32.0 °F - 30.9 °F 96% 29.99 in 7.0 mi Calm Calm - N/A   Clear
11:53 PM 30.9 °F 27.5 °F 28.9 °F 92% 29.97 in 5.0 mi ESE 3.5 mph - N/A   Clear